timestamp,surface_pressure_avg,surface_temp_avg,battery_voltage,lat,long
2020-09-13 00:09:01+00:00,228.6481,16.6,12.81,47.84626,-54.09684
2020-09-13 00:19:01+00:00,225.6481,16.6,12.73,47.84626,-54.09684
2020-09-13 00:29:01+00:00,224.7631,16.6,12.73,47.84626,-54.09684
2020-09-13 00:39:01+00:00,221.5314,16.6,12.73,47.84626,-54.09684
2020-09-13 00:49:01+00:00,217.9048,16.6,12.73,47.84626,-54.09684
2020-09-13 00:59:01+00:00,220.9481,16.6,12.73,47.84626,-54.09684
2020-09-13 01:09:01+00:00,222.2831,16.59,12.73,47.84626,-54.09684
2020-09-13 01:19:01+00:00,217.8148,16.57,12.73,47.84626,-54.09684
2020-09-13 01:29:01+00:00,215.5447,16.55,12.73,47.84626,-54.09684
2020-09-13 01:39:01+00:00,217.3415,16.55,12.73,47.84626,-54.09684
2020-09-13 01:49:01+00:00,214.2531,16.55,12.73,47.84626,-54.09684
2020-09-13 01:59:01+00:00,210.1214,16.54,12.73,47.84626,-54.09684
2020-09-13 02:09:01+00:00,212.2415,16.52,12.73,47.84626,-54.09684
2020-09-13 02:19:01+00:00,215.4048,16.57,12.73,47.84626,-54.09684
2020-09-13 02:29:01+00:00,214.8031,16.6,12.73,47.84626,-54.09684
2020-09-13 02:39:01+00:00,214.2414,16.64,12.73,47.84626,-54.09684
2020-09-13 02:49:01+00:00,215.5014,16.67,12.73,47.84626,-54.09684
2020-09-13 02:59:01+00:00,214.0147,16.66,12.73,47.84626,-54.09684
2020-09-13 03:09:01+00:00,212.3898,16.6,12.73,47.84626,-54.09684
2020-09-13 03:19:01+00:00,214.2415,16.6,12.73,47.84626,-54.09684
2020-09-13 03:29:01+00:00,214.6214,16.6,12.73,47.84626,-54.09684
2020-09-13 03:39:01+00:00,213.9147,16.6,12.73,47.84626,-54.09684
2020-09-13 03:49:01+00:00,219.5581,16.6,12.73,47.84626,-54.09684
2020-09-13 03:59:01+00:00,224.9548,16.6,12.73,47.84626,-54.09684
2020-09-13 04:09:01+00:00,225.7731,16.6,12.73,47.84626,-54.09684
2020-09-13 04:19:01+00:00,228.9748,16.6,12.73,47.84626,-54.09684
2020-09-13 04:29:01+00:00,234.2798,16.6,12.73,47.84626,-54.09684
2020-09-13 04:39:01+00:00,237.3198,16.6,12.73,47.84626,-54.09684
2020-09-13 04:49:01+00:00,239.5515,16.6,12.73,47.84626,-54.09684
2020-09-13 04:59:01+00:00,244.1364,16.6,12.73,47.84626,-54.09684
2020-09-13 05:09:01+00:00,251.2397,16.6,12.73,47.84626,-54.09684
2020-09-13 05:19:01+00:00,252.8882,16.6,12.73,47.84626,-54.09684
2020-09-13 05:29:01+00:00,253.3814,16.6,12.73,47.84626,-54.09684
2020-09-13 05:39:01+00:00,258.8147,16.6,12.73,47.84626,-54.09684
2020-09-13 05:49:01+00:00,267.7864,16.6,12.73,47.84626,-54.09684
2020-09-13 05:59:01+00:00,269.4448,16.6,12.73,47.84626,-54.09684
2020-09-13 06:09:01+00:00,269.7814,16.59,12.73,47.84626,-54.09684
2020-09-13 06:19:01+00:00,272.5797,16.52,12.73,47.84626,-54.09684
2020-09-13 06:29:01+00:00,277.0314,16.53,12.73,47.84626,-54.09684
2020-09-13 06:39:01+00:00,277.5997,16.6,12.73,47.84626,-54.09684
2020-09-13 06:49:01+00:00,279.6947,16.6,12.73,47.84626,-54.09684
2020-09-13 06:59:01+00:00,281.3698,16.6,12.73,47.84626,-54.09684
2020-09-13 07:09:01+00:00,280.6414,16.6,12.73,47.84626,-54.09684
2020-09-13 07:19:01+00:00,280.8615,16.65,12.73,47.84626,-54.09684
2020-09-13 07:29:01+00:00,283.8781,16.67,12.73,47.84626,-54.09684
2020-09-13 07:39:01+00:00,283.6247,16.68,12.73,47.84626,-54.09684
2020-09-13 07:49:01+00:00,282.6164,16.68,12.73,47.84626,-54.09684
2020-09-13 07:59:01+00:00,286.7314,16.6,12.73,47.84626,-54.09684
2020-09-13 08:09:01+00:00,288.553,16.6,12.73,47.84626,-54.09684
2020-09-13 08:19:01+00:00,285.1414,16.5,12.73,47.84626,-54.09684
2020-09-13 08:29:01+00:00,283.8347,16.5,12.73,47.84626,-54.09684
2020-09-13 08:39:01+00:00,287.5714,16.46,12.73,47.84626,-54.09684
2020-09-13 08:49:01+00:00,285.873,16.4,12.73,47.84626,-54.09684
2020-09-13 08:59:01+00:00,280.9097,16.4,12.73,47.84626,-54.09684
2020-09-13 09:09:01+00:00,282.0197,16.4,12.73,47.84626,-54.09684
2020-09-13 09:19:01+00:00,282.1097,16.42,12.73,47.84626,-54.09684
2020-09-13 09:29:01+00:00,274.2448,16.44,12.73,47.84626,-54.09684
2020-09-13 09:39:01+00:00,267.8481,16.4,12.73,47.84626,-54.09684
2020-09-13 09:49:01+00:00,269.3765,16.4,12.73,47.84626,-54.09684
2020-09-13 09:59:01+00:00,268.5581,16.42,12.73,47.84626,-54.09684
2020-09-13 10:09:01+00:00,259.0497,16.41,12.73,47.84626,-54.09684
2020-09-13 10:19:01+00:00,250.9831,16.4,13.53,47.84626,-54.09684
2020-09-13 10:29:01+00:00,248.248,16.4,13.53,47.84626,-54.09684
2020-09-13 10:39:01+00:00,244.9098,16.4,13.53,47.84626,-54.09684
2020-09-13 10:49:01+00:00,236.5098,16.33,13.53,47.84626,-54.09684
2020-09-13 10:59:01+00:00,233.0298,16.3,13.53,47.84626,-54.09684
2020-09-13 11:09:01+00:00,234.8781,16.3,13.53,47.84626,-54.09684
2020-09-13 11:19:01+00:00,230.5264,16.3,14.08,47.84626,-54.09684
2020-09-13 11:29:01+00:00,224.0197,16.3,14.08,47.84626,-54.09684
2020-09-13 11:39:01+00:00,221.8114,16.3,14.08,47.84626,-54.09684
2020-09-13 11:49:01+00:00,220.4881,16.1,14.08,47.84626,-54.09684
2020-09-13 11:59:01+00:00,217.7415,16.0,14.08,47.84626,-54.09684
2020-09-13 12:09:01+00:00,217.7181,16.0,14.08,47.84626,-54.09684
2020-09-13 12:19:01+00:00,217.7798,16.0,14.48,47.84626,-54.09684
2020-09-13 12:29:01+00:00,216.4831,16.0,14.48,47.84626,-54.09684
2020-09-13 12:39:01+00:00,214.8682,16.0,14.48,47.84626,-54.09684
2020-09-13 12:49:01+00:00,214.0897,16.0,14.48,47.84626,-54.09684
2020-09-13 12:59:01+00:00,209.7481,16.05,14.48,47.84626,-54.09684
2020-09-13 13:09:01+00:00,207.9265,16.1,14.48,47.84626,-54.09684
2020-09-13 13:19:01+00:00,209.0431,16.1,14.48,47.84626,-54.09684
2020-09-13 13:29:01+00:00,206.0481,16.11,14.48,47.84626,-54.09684
2020-09-13 13:39:01+00:00,202.0631,16.15,14.48,47.84626,-54.09684
2020-09-13 13:49:01+00:00,203.8931,16.14,14.48,47.84626,-54.09684
2020-09-13 13:59:01+00:00,206.7898,16.13,14.48,47.84626,-54.09684
2020-09-13 14:09:01+00:00,205.368,16.18,14.48,47.84626,-54.09684
2020-09-13 14:19:01+00:00,205.0948,16.2,14.4,47.84626,-54.09684
2020-09-13 14:29:01+00:00,206.4398,16.2,14.4,47.84626,-54.09684
2020-09-13 14:39:01+00:00,207.4148,16.2,14.4,47.84626,-54.09684
2020-09-13 14:49:01+00:00,207.9448,16.22,14.4,47.84626,-54.09684
2020-09-13 14:59:01+00:00,211.2165,16.3,14.4,47.84626,-54.09684
2020-09-13 15:09:01+00:00,214.3098,16.38,14.4,47.84626,-54.09684
2020-09-13 15:19:01+00:00,216.1564,16.4,14.24,47.84626,-54.09684
2020-09-13 15:29:01+00:00,218.0881,16.4,14.24,47.84626,-54.09684
2020-09-13 15:39:01+00:00,224.1014,16.4,14.24,47.84626,-54.09684
2020-09-13 15:49:01+00:00,227.7448,16.4,14.24,47.84626,-54.09684
2020-09-13 15:59:01+00:00,228.5731,16.4,14.24,47.84626,-54.09684
2020-09-13 16:09:01+00:00,230.1614,16.4,14.24,47.84626,-54.09684
2020-09-13 16:19:01+00:00,231.2381,16.4,14.08,47.84626,-54.09684
2020-09-13 16:29:01+00:00,233.3448,16.4,14.08,47.84626,-54.09684
2020-09-13 16:39:01+00:00,236.2831,16.4,14.08,47.84626,-54.09684
2020-09-13 16:49:01+00:00,240.6331,16.4,14.08,47.84626,-54.09684
2020-09-13 16:59:01+00:00,243.7614,16.41,14.08,47.84626,-54.09684
2020-09-13 17:09:01+00:00,247.8915,16.48,14.08,47.84626,-54.09684
2020-09-13 17:19:01+00:00,252.6398,16.5,14.08,47.84626,-54.09684
2020-09-13 17:29:01+00:00,258.5314,16.5,14.08,47.84626,-54.09684
2020-09-13 17:39:01+00:00,262.063,16.5,14.08,47.84626,-54.09684
2020-09-13 17:49:01+00:00,266.9197,16.5,14.08,47.84626,-54.09684
2020-09-13 17:59:01+00:00,270.118,16.5,14.08,47.84626,-54.09684
2020-09-13 18:09:01+00:00,276.9564,16.5,14.08,47.84626,-54.09684
2020-09-13 18:19:01+00:00,283.9297,16.51,14.0,47.84626,-54.09684
2020-09-13 18:29:01+00:00,290.153,16.54,14.0,47.84626,-54.09684
2020-09-13 18:39:01+00:00,291.8897,16.57,14.0,47.84626,-54.09684
2020-09-13 18:49:01+00:00,296.1431,16.58,14.0,47.84626,-54.09684
2020-09-13 18:59:01+00:00,302.0613,16.59,14.0,47.84626,-54.09684
2020-09-13 19:09:01+00:00,307.0197,16.59,14.0,47.84626,-54.09684
2020-09-13 19:19:01+00:00,305.9196,16.6,13.84,47.84626,-54.09684
2020-09-13 19:29:01+00:00,306.6046,16.6,13.84,47.84626,-54.09684
2020-09-13 19:39:01+00:00,307.303,16.6,13.84,47.84626,-54.09684
2020-09-13 19:49:01+00:00,308.8914,16.6,13.84,47.84626,-54.09684
2020-09-13 19:59:01+00:00,311.343,16.6,13.84,47.84626,-54.09684
2020-09-13 20:09:01+00:00,315.7247,16.6,13.84,47.84626,-54.09684
2020-09-13 20:19:01+00:00,315.6596,16.6,13.68,47.84626,-54.09684
2020-09-13 20:29:01+00:00,315.5797,16.6,13.68,47.84626,-54.09684
2020-09-13 20:39:01+00:00,314.14799999999997,16.6,13.68,47.84626,-54.09684
2020-09-13 20:49:01+00:00,314.728,16.6,13.68,47.84626,-54.09684
2020-09-13 20:59:01+00:00,315.8047,16.6,13.68,47.84626,-54.09684
2020-09-13 21:09:01+00:00,317.378,16.6,13.68,47.84626,-54.09684
2020-09-13 21:19:01+00:00,314.6879,16.6,13.29,47.84626,-54.09684
2020-09-13 21:29:01+00:00,314.6597,16.6,13.29,47.84626,-54.09684
2020-09-13 21:39:01+00:00,312.7214,16.6,13.29,47.84626,-54.09684
2020-09-13 21:49:01+00:00,311.353,16.6,13.29,47.84626,-54.09684
2020-09-13 21:59:01+00:00,312.803,16.6,13.29,47.84626,-54.09684
2020-09-13 22:09:01+00:00,311.5131,16.6,13.29,47.84626,-54.09684
2020-09-13 22:19:01+00:00,305.673,16.6,12.97,47.84626,-54.09684
2020-09-13 22:29:01+00:00,301.113,16.58,12.97,47.84626,-54.09684
2020-09-13 22:39:01+00:00,296.988,16.57,12.97,47.84626,-54.09684
2020-09-13 22:49:01+00:00,291.1813,16.51,12.97,47.84626,-54.09684
2020-09-13 22:59:01+00:00,285.2947,16.5,12.97,47.84626,-54.09684
2020-09-13 23:09:01+00:00,283.6481,16.5,12.97,47.84626,-54.09684
2020-09-13 23:19:01+00:00,280.3097,16.5,12.73,47.84626,-54.09684
2020-09-13 23:29:01+00:00,271.6431,16.5,12.73,47.84626,-54.09684
2020-09-13 23:39:01+00:00,265.4214,16.5,12.73,47.84626,-54.09684
2020-09-13 23:49:01+00:00,259.4781,16.5,12.73,47.84626,-54.09684
2020-09-13 23:59:01+00:00,254.9047,16.5,12.73,47.84626,-54.09684
